DateTimeUTC,F1_A11,F1_S11,BsB_S11,BsG_S11,BsR_S11,BbsB_S11,BbsG_S11,BbsR_S11,BaB_A11,BaG_A11,BaR_A11,Tu_S11,T_S11,Uu_S11,U_S11,P_S11,T1_A11
2021-01-22T15:00:00Z,00000200,21000000,,,,,,,0000.04,0000.46,0000.50,17.2,24.4,,00.0,0653.5,30.9
2021-01-22T15:01:00Z,00000200,21000000,,,,,,,0000.18,-000.00,0000.00,17.2,24.4,,00.0,0653.5,30.9
2021-01-22T15:02:00Z,00000200,21000000,,,,,,,0000.10,-000.19,-000.28,17.2,24.4,,00.0,0653.5,30.9
2021-01-22T15:03:00Z,00000200,61000000,,,,,,,-000.08,-000.09,0000.15,17.2,24.4,,00.0,0653.5,30.9
2021-01-22T15:04:00Z,00000200,41000000,-000.05,-000.26,0000.13,-000.34,0000.09,0000.28,0000.33,0000.23,0000.09,17.3,24.1,,00.0,0654.4,30.9
2021-01-22T15:05:00Z,00000200,01000000,0000.14,-000.09,-000.24,0000.51,-000.04,-000.12,-000.26,-000.53,-000.06,17.3,24.0,,00.0,0654.4,30.9
2021-01-22T15:06:00Z,00000200,01000000,0000.05,-000.05,-000.18,0000.23,0000.15,0000.01,0000.46,0000.61,0000.06,17.3,24.0,,00.0,0654.4,30.9
2021-01-22T15:07:00Z,00000200,01000000,0000.11,0000.02,0000.13,0000.47,0000.01,0000.22,-000.31,0000.05,0000.03,17.2,24.0,,00.0,0654.4,30.9
2021-01-22T15:08:00Z,00000200,01000000,0000.03,0000.07,0000.30,0000.25,0000.08,0000.37,-000.03,-000.22,0000.22,17.2,23.9,,00.0,0654.4,30.9
2021-01-22T15:09:00Z,00000200,01000000,-000.32,-000.20,-000.24,0000.11,0000.17,0000.11,0000.29,0000.20,0000.14,17.1,23.9,,00.0,0654.4,30.9
2021-01-22T15:10:00Z,00000200,01000000,0000.08,0000.09,0000.09,-000.06,-000.06,0000.04,-000.36,-000.29,-000.11,17.1,23.9,,00.0,0654.4,30.9
2021-01-22T15:11:00Z,00000200,01000000,0000.66,0000.08,-000.11,0000.10,0000.25,0000.08,-000.06,-000.01,-000.20,17.1,23.8,,00.0,0654.4,30.8
2021-01-22T15:12:00Z,00000200,01000000,0001.10,-000.04,0000.09,-000.25,0000.23,0000.25,0000.26,0000.08,0000.21,17.1,23.8,,00.0,0654.4,30.9
2021-01-22T15:13:00Z,00000200,01000000,-000.11,0000.13,0000.09,0000.06,-000.05,0000.28,0000.15,0000.04,-000.04,17.1,23.8,,00.0,0654.4,30.9
2021-01-22T15:14:00Z,00000200,01000000,-000.39,0000.04,-000.19,0000.01,0000.05,0000.08,-000.01,0000.22,-000.03,17.2,23.8,,00.0,0654.5,30.9
2021-01-22T15:15:00Z,00000200,01000000,0000.27,-000.27,-000.03,0000.32,0000.06,0000.23,-000.02,-000.31,0000.31,17.2,23.9,,00.0,0654.5,30.9
2021-01-22T15:16:00Z,00000200,01000000,0000.40,0000.06,0000.15,-000.30,0000.21,0000.40,0000.33,0000.13,-000.73,17.2,23.9,,00.0,0654.6,30.9
2021-01-22T15:17:00Z,00000200,01000000,-000.23,0000.13,-000.00,0000.29,-000.02,0000.13,-000.32,0000.04,0000.58,17.1,23.8,,00.0,0654.7,30.9
2021-01-22T15:18:00Z,00000200,01000000,0000.09,-000.36,0000.19,-000.35,0000.21,0000.07,0000.12,0000.24,-000.08,17.1,23.8,,00.0,0654.7,30.9
2021-01-22T15:19:00Z,00000200,01000000,0000.44,0000.02,0000.45,0000.20,0000.23,0000.32,-000.02,-000.20,-000.15,17.1,23.8,,00.0,0654.8,30.9
2021-01-22T15:20:00Z,00000200,01000000,0000.94,-000.01,0000.20,-000.03,0000.16,0000.18,-000.19,-000.31,0000.12,17.0,23.8,,00.0,0654.8,30.9
2021-01-22T15:21:00Z,00000200,01000000,0000.31,-000.15,-000.16,0000.10,0000.01,-000.01,0000.27,0000.68,-000.05,17.0,23.7,,00.0,0654.8,30.9
2021-01-22T15:22:00Z,00000200,01000000,0000.21,0000.17,0000.05,-000.21,0000.38,0000.22,-000.07,-000.50,-000.43,17.0,23.7,,00.0,0654.8,30.9
2021-01-22T15:23:00Z,00000200,01000000,0000.39,0000.27,0000.08,0000.15,0000.11,0000.21,-000.18,0000.16,0000.37,16.9,23.7,,00.0,0654.8,30.9
2021-01-22T15:24:00Z,00000200,01000000,0000.44,-000.02,0000.09,-000.25,0000.24,0000.22,-000.00,-000.17,-000.00,16.9,23.6,,00.0,0654.8,30.9
2021-01-22T15:25:00Z,00000200,01000000,-000.33,-000.14,-000.09,0000.25,-000.06,0000.49,-000.08,-000.01,-000.14,16.8,23.6,,00.0,0654.8,30.8
2021-01-22T15:26:00Z,00000200,01000000,0000.74,0000.40,0000.54,0000.35,0000.03,0000.44,0006.85,0006.05,0004.96,16.8,23.6,,00.0,0654.8,30.8
2021-01-22T15:27:00Z,00000200,01000000,0004.22,0002.95,0001.79,0000.65,0000.74,0000.58,0047.40,0043.78,0034.89,16.8,23.6,,00.0,0654.8,30.8
2021-01-22T15:28:00Z,00000200,01000000,0012.73,0009.10,0006.05,0002.48,0002.38,0001.63,0157.85,0145.93,0116.72,16.9,23.6,,00.0,0654.9,30.9
2021-01-22T15:29:00Z,00000200,01000000,0010.71,0008.27,0005.04,0002.34,0001.83,0001.49,0147.08,0136.81,0109.89,16.9,23.6,,00.0,0654.9,30.9
2021-01-22T15:30:00Z,00000200,01000000,0005.79,0004.80,0002.86,0001.02,0001.20,0001.03,0083.89,0077.59,0062.42,17.0,23.6,,00.0,0654.8,30.9
2021-01-22T15:31:00Z,00000200,01000000,0007.51,0005.93,0003.88,0001.60,0001.56,0001.20,0106.18,0098.45,0078.70,17.0,23.6,,00.0,0654.9,30.9
2021-01-22T15:32:00Z,00000200,01000000,0007.09,0004.45,0003.39,0001.27,0001.18,0001.18,0088.51,0082.52,0066.05,17.1,23.7,,00.0,0654.8,30.9
2021-01-22T15:33:00Z,00000200,01000000,0005.22,0003.88,0002.91,0000.81,0001.03,0000.69,0071.38,0066.26,0053.38,17.0,23.6,,00.0,0654.8,30.9
2021-01-22T15:34:00Z,00000200,01000000,0009.41,0006.63,0004.48,0001.41,0001.87,0001.57,0112.10,0103.66,0083.07,17.0,23.6,,00.0,0654.8,30.9
2021-01-22T15:35:00Z,00000200,01000000,0011.09,0008.21,0005.35,0002.00,0002.04,0001.47,0140.16,0130.44,0105.47,16.9,23.6,,00.0,0654.8,30.9
2021-01-22T15:36:00Z,00000200,01000000,0010.92,0007.84,0005.11,0002.58,0002.14,0001.69,0141.50,0131.69,0105.99,16.9,23.6,,00.0,0654.8,30.9
2021-01-22T15:37:00Z,00000200,01000000,0011.41,0008.38,0005.37,0001.93,0002.22,0001.61,0149.32,0138.92,0111.78,16.9,23.6,,00.0,0654.8,30.9
2021-01-22T15:38:00Z,00000200,01000000,0007.24,0004.72,0003.22,0000.92,0001.22,0000.98,0090.45,0084.11,0067.86,16.9,23.6,,00.0,0654.7,30.9
2021-01-22T15:39:00Z,00000200,01000000,0002.79,0002.39,0001.39,0000.29,0000.67,0000.57,0041.56,0038.79,0031.06,16.8,23.5,,00.0,0654.7,30.9
2021-01-22T15:40:00Z,00000200,01000000,0001.54,0001.21,0000.69,0000.64,0000.29,0000.21,0020.24,0018.77,0015.06,16.8,23.5,,00.0,0654.6,30.9
2021-01-22T15:41:00Z,00000200,01000000,0000.55,0000.27,0000.45,0000.13,0000.05,0000.17,0008.44,0007.66,0006.58,16.8,23.5,,00.0,0654.6,30.9
2021-01-22T15:42:00Z,00000200,01000000,0001.21,0000.51,0000.19,-000.07,0000.29,0000.30,0008.39,0007.63,0006.39,16.8,23.5,,00.0,0654.5,30.9
2021-01-22T15:43:00Z,00000200,01000000,0000.58,0000.04,0000.37,-000.02,0000.26,0000.31,0007.40,0006.76,0005.11,16.8,23.5,,00.0,0654.5,30.9
2021-01-22T15:44:00Z,00000200,01000000,0000.90,0000.40,0000.16,0000.58,0000.15,-000.29,0006.29,0006.31,0004.83,16.8,23.5,,00.0,0654.5,30.9
2021-01-22T15:45:00Z,00000200,01000000,0000.30,0000.28,0000.26,-000.86,0000.54,0000.36,0006.42,0005.80,0004.81,16.9,23.5,,00.0,0654.5,30.9
2021-01-22T15:46:00Z,00000200,01000000,0000.25,0000.17,0000.10,0000.18,0000.14,0000.38,0004.38,0004.35,0003.33,16.9,23.5,,00.0,0654.4,30.9
2021-01-22T15:47:00Z,00000200,01000000,-000.40,0000.22,0000.31,0000.35,-000.03,0000.36,0003.30,0002.90,0002.07,16.9,23.5,,00.0,0654.4,30.9
2021-01-22T15:48:00Z,00000200,01000000,0000.40,-000.11,0000.32,0000.01,0000.18,0000.17,0002.08,0002.15,0001.95,16.8,23.5,,00.0,0654.4,30.9
2021-01-22T15:49:00Z,00000200,01000000,0000.62,0000.09,0000.09,0000.13,0000.01,0000.27,0002.04,0001.40,0001.43,16.8,23.5,,00.0,0654.3,30.9
2021-01-22T15:50:00Z,00000200,01000000,0000.60,0000.03,-000.02,-000.00,-000.17,0000.08,0001.41,0001.69,0000.91,16.7,23.4,,00.0,0654.3,30.9
2021-01-22T15:51:00Z,00000200,01000000,0000.33,-000.28,0000.04,-000.06,0000.08,-000.02,0001.08,0000.79,0000.78,16.7,23.4,,00.0,0654.3,30.9
2021-01-22T15:52:00Z,00000200,01000000,0000.99,0000.11,-000.08,0000.29,-000.22,0000.12,0001.59,0001.81,0001.12,16.7,23.4,,00.0,0654.2,30.9
2021-01-22T15:53:00Z,00000200,01000000,0000.37,0000.07,0000.09,-000.17,-000.02,-000.07,0001.15,0000.76,0000.96,16.7,23.4,,00.0,0654.2,30.9
2021-01-22T15:54:00Z,00000200,01000000,0000.25,0000.08,-000.07,0000.19,0000.07,-000.00,0001.27,0001.21,0000.76,16.6,23.4,,00.0,0654.2,30.8
2021-01-22T15:55:00Z,00000200,01000000,-000.09,0000.26,0000.12,-000.10,-000.04,0000.17,0000.97,0000.82,0000.72,16.6,23.3,,00.0,0654.1,30.8
2021-01-22T15:56:00Z,00000200,01000000,0000.36,0000.28,-000.08,-000.48,0000.01,0000.22,0000.91,0000.69,0000.54,16.6,23.3,,00.0,0654.1,30.8
2021-01-22T15:57:00Z,00000200,41000000,,,,,,,0000.78,0000.49,0000.47,16.6,23.3,,00.0,0654.0,30.8
2021-01-22T15:58:00Z,00000200,61000000,,,,,,,0000.88,0001.14,0000.91,16.3,23.5,,00.0,0653.1,30.8
2021-01-22T15:59:00Z,00000200,21000000,,,,,,,0001.08,0000.94,0000.47,16.3,23.6,,00.0,0653.2,30.9
